Location: 433rd Scouts Home(Lloyd Manor Park, Etobicoke )
(43.6722°N, 79.5542°W)
Time: 18:49:39
(UTC-04:00)

Nauka - Pass Details

Date: 05 October 2021
Orbit: 417 x 423 km, 51.6° (Epoch: 17 October)

Event Time Altitude Azimuth Distance (km) Brightness Sun altitude
Rises 20:34:03 0° 291° (WNW) 2,363 ? -19.3°
Reaches altitude 10° 20:36:32 10° 273° (W) 1,496 ? -19.7°
Maximum altitude 20:39:01 19° 226° (SW) 1,055 ? -20.2°
Enters shadow 20:40:27 15° 193° (SSW) 1,221 ? -20.4°
